Regional Weather Roundup
Issued by NWS

Home | Current Version | Previous Version | Graphics & Text | Print | Product List | Glossary On
Versions: 1 2 3 4 5 6 7 8 9 10 11 12 13 14 15 16 17 18 19 20 21 22 23 24 25 26 27 28 29 30 31 32 33 34 35 36 37 38 39 40 41 42 43 44 45 46 47 48 49 50
000
ASUS43 KLMK 022010
RWRKY
KENTUCKY REGIONAL WEATHER ROUNDUP
NATIONAL WEATHER SERVICE LOUISVILLE KY
400 PM EDT WED SEP 02 2015

NOTE "FAIR" INDICATES FEW OR NO CLOUDS BELOW 12,000 FEET
WITH NO SIGNIFICANT WEATHER AND/OR OBSTRUCTIONS TO VISIBILITY.

KYZ001>023-026-027-061>063-070>075-022100-
WESTERN AND SOUTH CENTRAL KENTUCKY

CITY           SKY/WX    TMP DP  RH WIND       PRES   REMARKS
PADUCAH        CLOUDY    93  68  43 E7        30.04F HX  97
HENDERSON      SUNNY     88  66  48 CALM      30.04F HX  90
OWENSBORO      MOSUNNY   92  68  45 VRB3      30.05F HX  96
HOPKINSVILLE   PTSUNNY   89  67  47 N3        30.05F HX  92
BOWLING GREEN  SUNNY     93  62  35 NE7       30.06F HX  93
GLASGOW        PTSUNNY   91  63  39 CALM      30.07F HX  91
$$

KYZ024-025-028>034-038-045-046-053-022100-
NORTH CENTRAL KENTUCKY

CITY           SKY/WX    TMP DP  RH WIND       PRES   REMARKS
LOUISVILLE/SDF MOSUNNY   90  65  43 CALM      30.04F HX  92
LOUISVILLE/LOU MOSUNNY   89  66  46 E5        30.06F HX  91
FORT KNOX      MOSUNNY   89  65  45 NW6       30.05F HX  90
$$

KYZ035>037-039>044-047>052-055>060-089>105-022100-
NORTHEAST KENTUCKY

CITY           SKY/WX    TMP DP  RH WIND       PRES   REMARKS
LEXINGTON      SUNNY     90  64  42 VRB5      30.08F HX  91
COVINGTON      MOSUNNY   89  67  47 W6        30.06F HX  92
FRANKFORT      SUNNY     88  65  46 VRB5      30.06F HX  90
$$

KYZ054-064>069-076>088-106>120-022100-
SOUTHEAST KENTUCKY

CITY           SKY/WX    TMP DP  RH WIND       PRES   REMARKS
JACKSON        MOSUNNY   88  65  46 VRB3      30.09F HX  90
LONDON         MOSUNNY   88  58  36 CALM      30.08F
SOMERSET       SUNNY     86  59  39 SW3       30.08F
MIDDLESBORO    SUNNY     88  68  50 NE8       30.08F HX  91
MONTICELLO     CLEAR     91  66  43 N3        30.10F HX  93
$$



USA.gov is the U.S. government's official web portal to all federal, state and local government web resources and services.